map of DVT home
DVT - Airport
Location
City:  Phoenix, Arizona, United States
Name:Phoenix Deer Valley Airport
ICAO:KDVT
IATA:DVT
FAA LID:DVT

Details
Type:Airport (Airfield)
Use:Public/Civil
Latitude:3341'18"N (33.688306)
Longitude:11204'57"W (-112.082555)
Datum:WGS 1984
Elevation:1478 ft (450 m)
Variation:10.42E (WMM2015 magnetic declination)
-0.09 annual change
Runways:2
Longest:8196 × 100 ft (2498 × 30.5 m), paved

Time
Time Zone:UTC-7
Local Time:

Weather
METAR:KDVT 250553Z AUTO 20004KT 10SM CLR 38/04 A2975 RMK AO2 SLP041 T03780039 10450 20356 51017

Related Locations
Nearby:
Farthest:RRG: 11432 mi / 18398 km
Plaine Corail [Sir Gatan Duval Airport (Plaine Corail Airport)], Rodrigues Island, MU

Find:

   beyond  
but within

Other Information
Maps:
NOTAMs:
Links:
Sources:

  
flag of United States
flag of Arizona
flag of Phoenix
  

Airport Diagram

Airport diagram for DVT

Airport diagram PDF

Sectional Chart

Flight Planning
at skyvector.com

Satellite Image

Google Maps Satellite view

 

Copyright © 2004-2017 Karl L. Swartz. All rights reserved.
The Great Circle Mapper name and logo are trademarks of the Great Circle Mapper.
All other trademarks mentioned herein belong to their respective owners.
Please see credits for attibutions and further copyright information.

  Follow gcmap on Facebook Follow gcmap on Twitter Follow gcmap on Google+ GCmap on LinkedIn

hCard Microformat

Geo Microformat